TimeCST,TemperatureF,Dew PointF,Humidity,Sea Level PressureIn,VisibilityMPH,Wind Direction,Wind SpeedMPH,Gust SpeedMPH,PrecipitationIn,Events,Conditions,WindDirDegrees,DateUTC
12:15 AM,39.2,1.4,21,30.04,10.0,NE,4.6,-,N/A,,Clear,50,2013-03-04 06:15:00
12:35 AM,39.2,3.2,22,30.04,10.0,NNE,4.6,-,N/A,,Clear,30,2013-03-04 06:35:00
12:55 AM,39.2,3.2,22,30.04,10.0,NE,4.6,-,N/A,,Clear,50,2013-03-04 06:55:00
1:15 AM,37.4,1.4,22,30.03,10.0,NE,5.8,-,N/A,,Clear,40,2013-03-04 07:15:00
1:35 AM,37.4,1.4,22,30.04,10.0,NE,3.5,-,N/A,,Clear,50,2013-03-04 07:35:00
1:55 AM,35.6,1.4,24,30.04,10.0,ENE,5.8,-,N/A,,Clear,60,2013-03-04 07:55:00
2:15 AM,35.6,1.4,24,30.03,10.0,ENE,4.6,-,N/A,,Clear,60,2013-03-04 08:15:00
2:35 AM,37.4,1.4,22,30.02,10.0,East,4.6,-,N/A,,Clear,80,2013-03-04 08:35:00
2:55 AM,35.6,-0.4,22,30.02,10.0,ENE,3.5,-,N/A,,Clear,70,2013-03-04 08:55:00
3:15 AM,35.6,1.4,24,30.01,10.0,East,3.5,-,N/A,,Clear,90,2013-03-04 09:15:00
3:35 AM,35.6,-0.4,22,30.00,10.0,SE,3.5,-,N/A,,Clear,140,2013-03-04 09:35:00
3:55 AM,39.2,1.4,21,29.99,10.0,South,3.5,-,N/A,,Clear,180,2013-03-04 09:55:00
4:15 AM,39.2,-0.4,19,29.99,10.0,SSW,4.6,-,N/A,,Clear,200,2013-03-04 10:15:00
4:35 AM,39.2,1.4,21,29.98,10.0,SSE,4.6,-,N/A,,Clear,160,2013-03-04 10:35:00
4:55 AM,37.4,-0.4,20,29.99,10.0,ESE,3.5,-,N/A,,Clear,110,2013-03-04 10:55:00
5:15 AM,37.4,1.4,22,29.99,10.0,East,3.5,-,N/A,,Clear,100,2013-03-04 11:15:00
5:55 AM,37.4,1.4,22,30.00,10.0,ESE,3.5,-,N/A,,Clear,110,2013-03-04 11:55:00
6:15 AM,39.2,1.4,21,30.00,10.0,SE,3.5,-,N/A,,Clear,130,2013-03-04 12:15:00
6:35 AM,44.6,3.2,18,30.00,10.0,South,3.5,-,N/A,,Clear,170,2013-03-04 12:35:00
6:55 AM,44.6,1.4,17,30.01,10.0,SSE,4.6,-,N/A,,Clear,160,2013-03-04 12:55:00
7:15 AM,44.6,1.4,17,30.01,10.0,South,3.5,-,N/A,,Clear,180,2013-03-04 13:15:00
7:35 AM,46.4,1.4,16,30.01,10.0,South,6.9,-,N/A,,Clear,170,2013-03-04 13:35:00
7:55 AM,44.6,1.4,17,30.02,10.0,South,8.1,-,N/A,,Clear,170,2013-03-04 13:55:00
8:15 AM,46.4,3.2,17,30.02,10.0,SSE,8.1,-,N/A,,Clear,160,2013-03-04 14:15:00
8:35 AM,50.0,5.0,16,30.02,10.0,SSE,6.9,-,N/A,,Clear,160,2013-03-04 14:35:00
8:55 AM,53.6,6.8,15,30.02,10.0,South,10.4,-,N/A,,Clear,170,2013-03-04 14:55:00
9:15 AM,64.4,10.4,12,30.03,10.0,West,18.4,-,N/A,,Clear,260,2013-03-04 15:15:00
9:35 AM,66.2,10.4,11,30.03,10.0,WSW,23.0,-,N/A,,Clear,250,2013-03-04 15:35:00
9:55 AM,66.2,10.4,11,30.03,10.0,West,21.9,26.5,N/A,,Clear,270,2013-03-04 15:55:00
10:15 AM,69.8,10.4,10,30.02,10.0,WSW,24.2,29.9,N/A,,Clear,240,2013-03-04 16:15:00
10:35 AM,69.8,12.2,11,30.02,10.0,West,25.3,32.2,N/A,,Clear,260,2013-03-04 16:35:00
10:55 AM,69.8,12.2,11,30.02,10.0,West,26.5,32.2,N/A,,Clear,260,2013-03-04 16:55:00
11:15 AM,69.8,12.2,11,30.02,10.0,West,26.5,32.2,N/A,,Clear,260,2013-03-04 17:15:00
11:35 AM,71.6,12.2,10,30.01,10.0,West,28.8,33.4,N/A,,Clear,260,2013-03-04 17:35:00
11:55 AM,71.6,12.2,10,30.01,10.0,West,31.1,35.7,N/A,,Clear,260,2013-03-04 17:55:00
12:15 PM,71.6,14.0,11,30.00,10.0,WSW,28.8,33.4,N/A,,Clear,240,2013-03-04 18:15:00
12:55 PM,71.6,12.2,10,29.98,10.0,WSW,28.8,-,N/A,,Clear,250,2013-03-04 18:55:00
1:15 PM,71.6,12.2,10,29.98,10.0,WSW,24.2,31.1,N/A,,Clear,250,2013-03-04 19:15:00
1:35 PM,71.6,12.2,10,29.97,10.0,WSW,28.8,33.4,N/A,,Clear,250,2013-03-04 19:35:00
1:55 PM,73.4,14.0,10,29.95,10.0,WSW,27.6,34.5,N/A,,Clear,250,2013-03-04 19:55:00
2:15 PM,75.2,15.8,11,29.94,10.0,West,28.8,35.7,N/A,,Clear,260,2013-03-04 20:15:00
2:35 PM,73.4,15.8,11,29.95,10.0,WSW,27.6,33.4,N/A,,Clear,250,2013-03-04 20:35:00
2:55 PM,75.2,15.8,11,29.93,10.0,WSW,26.5,34.5,N/A,,Clear,240,2013-03-04 20:55:00
3:15 PM,73.4,15.8,11,29.92,10.0,WSW,29.9,35.7,N/A,,Clear,250,2013-03-04 21:15:00
3:35 PM,73.4,15.8,11,29.92,10.0,WSW,21.9,31.1,N/A,,Clear,250,2013-03-04 21:35:00
3:55 PM,73.4,15.8,11,29.92,10.0,WSW,23.0,27.6,N/A,,Clear,250,2013-03-04 21:55:00
4:15 PM,73.4,15.8,11,29.91,10.0,WSW,24.2,29.9,N/A,,Clear,250,2013-03-04 22:15:00
4:35 PM,73.4,15.8,11,29.90,10.0,WSW,20.7,27.6,N/A,,Clear,240,2013-03-04 22:35:00
4:55 PM,71.6,14.0,11,29.90,10.0,WSW,18.4,23.0,N/A,,Clear,250,2013-03-04 22:55:00
5:15 PM,73.4,15.8,11,29.89,10.0,WSW,21.9,28.8,N/A,,Clear,240,2013-03-04 23:15:00
5:35 PM,73.4,15.8,11,29.89,10.0,WSW,20.7,26.5,N/A,,Clear,250,2013-03-04 23:35:00
5:55 PM,73.4,15.8,11,29.90,10.0,WSW,23.0,28.8,N/A,,Clear,240,2013-03-04 23:55:00
6:15 PM,71.6,14.0,11,29.91,10.0,SW,17.3,-,N/A,,Clear,220,2013-03-05 00:15:00
6:35 PM,68.0,10.4,11,29.93,10.0,SW,12.7,-,N/A,,Clear,230,2013-03-05 00:35:00
6:55 PM,64.4,8.6,11,29.93,10.0,SW,11.5,-,N/A,,Clear,230,2013-03-05 00:55:00
7:15 PM,60.8,6.8,12,29.94,10.0,SW,13.8,-,N/A,,Clear,220,2013-03-05 01:15:00
7:35 PM,60.8,5.0,11,29.95,10.0,SW,9.2,-,N/A,,Clear,230,2013-03-05 01:35:00
7:55 PM,60.8,5.0,11,29.96,10.0,SSW,11.5,-,N/A,,Clear,210,2013-03-05 01:55:00
8:35 PM,57.2,3.2,11,29.98,10.0,SSW,6.9,-,N/A,,Mostly Cloudy,210,2013-03-05 02:35:00
8:55 PM,57.2,3.2,11,29.99,10.0,WSW,4.6,-,N/A,,Overcast,250,2013-03-05 02:55:00
9:15 PM,55.4,1.4,11,30.00,10.0,WNW,4.6,-,N/A,,Overcast,300,2013-03-05 03:15:00
9:35 PM,60.8,8.6,13,30.02,10.0,WNW,9.2,-,N/A,,Overcast,290,2013-03-05 03:35:00
9:55 PM,64.4,21.2,19,30.03,8.0,West,13.8,-,N/A,,Overcast,280,2013-03-05 03:55:00
10:15 PM,64.4,21.2,19,30.03,10.0,West,13.8,-,N/A,,Overcast,270,2013-03-05 04:15:00
10:35 PM,60.8,19.4,20,30.05,10.0,WSW,8.1,-,N/A,,Overcast,250,2013-03-05 04:35:00
10:55 PM,55.4,19.4,25,30.05,10.0,WSW,8.1,-,N/A,,Mostly Cloudy,250,2013-03-05 04:55:00
11:15 PM,55.4,19.4,25,30.06,10.0,West,8.1,-,N/A,,Clear,270,2013-03-05 05:15:00
11:35 PM,60.8,19.4,20,30.07,10.0,WNW,12.7,-,N/A,,Scattered Clouds,290,2013-03-05 05:35:00
11:55 PM,60.8,19.4,20,30.08,10.0,WNW,11.5,-,N/A,,Overcast,300,2013-03-05 05:55:00